Printer-friendly version

IAU Minor Planet Center

Minor Planet Center

MPEC 2008-C98 : 2008 CD119

The following Minor Planet Electronic Circular may be linked-to from your own Web pages, but must not otherwise be redistributed electronically.


Read MPEC 2008-C97 Read MPEC 2008-C99


M.P.E.C. 2008-C98                                Issued 2008 Feb. 14, 19:37 UT

     The Minor Planet Electronic Circulars contain information on unusual
         minor planets and routine data on comets.  They are published
   on behalf of Commission 20 of the International Astronomical Union by the
          Minor Planet Center, Smithsonian Astrophysical Observatory,
                          Cambridge, MA 02138, U.S.A.

             Prepared using the Tamkin Foundation Computer Network

                              MPC@CFA.HARVARD.EDU
          URL http://www.cfa.harvard.edu/iau/mpc.html  ISSN 1523-6714

                                  2008 CD119

Observations:
     K08CB9D* C2008 02 13.22474 09 57 51.73 +17 33 52.7          20.5 V EC098G96
     K08CB9D  C2008 02 13.22957 09 57 48.56 +17 33 30.9          21.4 V EC098G96
     K08CB9D  C2008 02 13.23440 09 57 45.39 +17 33 10.1          20.1 V EC098G96
     K08CB9D  C2008 02 13.23917 09 57 42.44 +17 32 50.4          20.1 V EC098G96
     K08CB9D  C2008 02 13.26983 09 57 23.07 +17 30 38.3          20.3 V EC098G96
     K08CB9D  C2008 02 13.27567 09 57 19.40 +17 30 13.0          20.9 V EC098G96
     K08CB9D  C2008 02 13.28155 09 57 15.66 +17 29 47.6          21.0 V EC098G96
     K08CB9D  C2008 02 13.28744 09 57 11.91 +17 29 22.3          20.8 V EC098G96
     K08CB9D  C2008 02 13.30061 09 57 03.52 +17 28 24.7          20.9 V EC098G96
     K08CB9D  C2008 02 13.30698 09 56 59.53 +17 27 57.4          20.5 V EC098G96
     K08CB9D  C2008 02 13.31339 09 56 55.50 +17 27 29.8          20.9 V EC098G96
     K08CB9D  C2008 02 13.31976 09 56 51.43 +17 27 02.2          20.9 V EC098G96
     K08CB9D  C2008 02 13.36429 09 56 23.06 +17 23 45.5          20.4 R EC098H01
     K08CB9D  C2008 02 13.36876 09 56 20.28 +17 23 25.9          20.5 R EC098H01
     K08CB9D  C2008 02 13.37340 09 56 17.37 +17 23 05.7          20.4 R EC098H01
     K08CB9D  C2008 02 13.37677 09 56 15.26 +17 22 50.9          20.5 R EC098H01
     K08CB9D  C2008 02 13.38096 09 56 12.66 +17 22 32.4          20.7 R EC098H01
     K08CB9D  C2008 02 14.26370 09 48 03.24 +16 21 22.3          21.7 V EC098G96
     K08CB9D  C2008 02 14.27048 09 47 59.38 +16 20 55.5          20.9 V EC098G96
     K08CB9D  C2008 02 14.27719 09 47 55.64 +16 20 29.0          20.8 V EC098G96
     K08CB9D  C2008 02 14.28405 09 47 51.82 +16 20 02.3          21.6 V EC098G96
     K08CB9D  C2008 02 14.29219 09 47 47.22 +16 19 30.0          20.9 V EC098G96
     K08CB9D  C2008 02 14.29893 09 47 43.51 +16 19 03.9          21.6 V EC098G96
     K08CB9D  C2008 02 14.30562 09 47 39.66 +16 18 36.3          20.6 V EC098G96
     K08CB9D  C2008 02 14.31225 09 47 35.98 +16 18 10.0          21.2 V EC098G96

Observer details:
G96 Mt. Lemmon Survey.  Observer A. D. Grauer.  Measurers E. C. Beshore,
    A. Boattini, G. J. Garradd, A. R. Gibbs, A. D. Grauer, R. E. Hill,
    R. A. Kowalski, S. M. Larson, R. H. McNaught.  1.5-m reflector + CCD.
H01 Magdalena Ridge Observatory, Socorro.  Observer W. H. Ryan.  2.4-m f/8.9
    reflector + CCD.

Orbital elements:
2008 CD119                                               Earth MOID = 0.0434 AU
Epoch 2007 Oct. 27.0 TT = JDT 2454400.5                 MPC
M 334.37767              (2000.0)            P               Q
n   0.97764758     Peri.   56.49617     +0.91552524     -0.38984047
a   1.0054207      Node   326.14307     +0.28396318     +0.80097739
e   0.3588378      Incl.   10.25526     +0.28491834     +0.45437828
P   1.01           H   25.5           G   0.15           U   9
Residuals in seconds of arc
080213 G96  1.4+  0.8+    080213 G96  0.1-  0.2-    080214 G96  0.6-  0.3-
080213 G96  0.2-  0.3-    080213 G96  0.3+  0.0     080214 G96  0.2-  0.2-
080213 G96  1.8-  0.4-    080213 G96  0.4-  0.0     080214 G96  0.2+  0.3+
080213 G96  0.8-  0.4+    080213 H01  0.3-  0.2+    080214 G96  0.3-  0.2+
080213 G96  0.0   0.2+    080213 H01  0.1-  0.1+    080214 G96  0.7+  0.9+
080213 G96  0.4+  0.1+    080213 H01  0.2-  0.3+    080214 G96  0.7-  0.1-
080213 G96  0.2+  0.0     080213 H01  0.3-  0.2+    080214 G96  0.3-  0.0
080213 G96  0.0   0.2+    080213 H01  0.1-  0.1+
080213 G96  0.7-  0.5-    080214 G96  0.2+  0.3-

Ephemeris:
2008 CD119               a,e,i = 1.01, 0.36, 10                  q = 0.6446
Date    TT    R. A. (2000) Decl.     Delta      r     Elong.  Phase     V
2008 02 14    09 50.39   +16 39.7    0.0934   1.081   176.6     3.1    20.8
2008 02 16    09 34.26   +14 34.8    0.104    1.092   174.6     4.9    21.2
2008 02 18    09 21.58   +12 51.1    0.116    1.103   169.9     9.1    21.6
2008 02 20    09 11.51   +11 24.9    0.128    1.113   165.5    12.8    22.0
2008 02 22    09 03.47   +10 13.2    0.141    1.124   161.6    16.1    22.4
2008 02 24    08 57.00   +09 13.1    0.154    1.134   158.1    19.0    22.7

Sonia Keys                   (C) Copyright 2008 MPC           M.P.E.C. 2008-C98

Read MPEC 2008-C97 Read MPEC 2008-C99


Our Web policy. Index to the CBAT/MPC/ICQ pages.


Valid HTML 4.01!